Weather History for KSHV - May, 2013

Change the Weather History Date:

Thursday, May 2, 2013

  Actual Average Record
Temperature  
Mean Temperature 59 °F 70 °F  
Max Temperature 71 °F 81 °F 94 °F (1943)
Min Temperature 47 °F 59 °F 44 °F (1918)
Degree Days  
Heating Degree Days 6 1  
Month to date heating degree days 6 2  
Since 1 July heating degree days 2049 2221  
Cooling Degree Days 0 5  
Month to date cooling degree days 6 10  
Year to date cooling degree days 125 145  
Growing Degree Days 10 (Base 50)    
Moisture  
Dew Point 60 °F    
Average Humidity 87    
Maximum Humidity 93    
Minimum Humidity 80    
Precipitation  
Precipitation 0.06 in 0.16 in 2.46 in (1944)
Month to date precipitation 0.11 0.32  
Year to date precipitation 14.31 17.60  
Snow  
Snow 0.00 in - - ()
Month to date snowfall 0.0  
Since 1 July snowfall 0.1  
Snow Depth 0.00 in    
Sea Level Pressure  
Sea Level Pressure 30.02 in    
Wind  
Wind Speed 11 mph (North)    
Max Wind Speed 23 mph    
Max Gust Speed 30 mph    
Visibility 8 miles    
Events Rain    
T = Trace of Precipitation, MM = Missing Value Source: NWS Daily Summary

Daily Weather History Graph

Daily Weather History Graph

Search for Another Location

Airport or City:

Trip Planner

Search our weather history database for the weather conditions in past years. The results will help you decide how hot, cold, wet, or windy it might be!

Date:

Astronomy

May. 02, 2013 Rise Set
Actual Time 6:27 AM CDT 7:57 PM CDT
Civil Twilight 6:01 AM CDT 8:23 PM CDT
Nautical Twilight 5:29 AM CDT 8:55 PM CDT
Astronomical Twilight 4:57 AM CDT 9:28 PM CDT
Moon 1:50 AM CDT (5/2) 1:11 PM CDT (5/2)
Length of Visible Light 14h 22m
Length of Day
13h 30m
Waning Gibbous, 47% of the Moon is Illuminated
May 2
Waning Gibbous
May 9
New
May 17
First Quarter
May 24
Full
May 31
Last Quarter

Hourly Weather History & Observations

Time (CDT) Temp. Dew Point Humidity Pressure Visibility Wind Dir Wind Speed Gust Speed Precip Events Conditions
12:37 AM 66.2 °F 62.6 °F 88% 29.95 in 10.0 mi East 8.1 mph - N/A   Overcast
12:56 AM 66.0 °F 63.0 °F 90% 29.95 in 10.0 mi ENE 6.9 mph - N/A   Overcast
1:08 AM 66.2 °F 62.6 °F 88% 29.96 in 10.0 mi ENE 8.1 mph - N/A   Overcast
1:56 AM 66.0 °F 63.0 °F 90% 29.95 in 10.0 mi ENE 8.1 mph - N/A   Overcast
2:56 AM 66.0 °F 62.1 °F 87% 29.94 in 10.0 mi ENE 5.8 mph - N/A   Overcast
3:17 AM 66.2 °F 62.6 °F 88% 29.95 in 10.0 mi ENE 5.8 mph - N/A   Overcast
3:56 AM 66.0 °F 62.1 °F 87% 29.96 in 10.0 mi NE 5.8 mph - N/A   Overcast
4:56 AM 64.9 °F 62.1 °F 90% 29.96 in 10.0 mi NNE 5.8 mph - N/A   Overcast
5:21 AM 64.4 °F 62.6 °F 94% 29.97 in 10.0 mi NNE 6.9 mph - N/A   Overcast
5:48 AM 64.4 °F 62.6 °F 94% 29.97 in 10.0 mi NNE 8.1 mph - N/A   Overcast
5:56 AM 64.9 °F 62.1 °F 90% 29.97 in 10.0 mi NNE 6.9 mph - N/A   Overcast
6:25 AM 64.4 °F 62.6 °F 94% 29.98 in 10.0 mi NNE 8.1 mph - N/A   Overcast
6:29 AM 64.4 °F 62.6 °F 94% 29.98 in 10.0 mi NNE 6.9 mph - N/A   Overcast
6:45 AM 64.4 °F 62.6 °F 94% 29.99 in 10.0 mi NNE 6.9 mph - N/A   Overcast
6:56 AM 64.9 °F 62.1 °F 90% 29.98 in 10.0 mi NNE 6.9 mph - N/A   Overcast
7:56 AM 66.0 °F 62.1 °F 87% 30.01 in 10.0 mi NNE 8.1 mph - N/A   Overcast
8:36 AM 66.2 °F 62.6 °F 88% 30.02 in 10.0 mi North 9.2 mph - N/A   Overcast
8:56 AM 66.0 °F 62.1 °F 87% 30.01 in 10.0 mi North 9.2 mph - N/A   Overcast
9:47 AM 68.0 °F 62.6 °F 83% 30.03 in 10.0 mi NNW 9.2 mph - N/A   Overcast
9:56 AM 68.0 °F 62.1 °F 81% 30.03 in 10.0 mi NNW 9.2 mph - N/A   Overcast
10:04 AM 68.0 °F 62.6 °F 83% 30.03 in 10.0 mi North 10.4 mph - N/A   Overcast
10:56 AM 68.0 °F 62.1 °F 81% 30.04 in 10.0 mi North 6.9 mph - N/A   Overcast
11:56 AM 69.1 °F 64.0 °F 84% 30.04 in 7.0 mi North 10.4 mph - 0.01 in   Overcast
12:46 PM 68.0 °F 62.6 °F 83% 30.04 in 10.0 mi NNW 12.7 mph - N/A   Overcast
12:56 PM 68.0 °F 63.0 °F 84% 30.04 in 7.0 mi NW 8.1 mph - 0.00 in Rain Light Rain
1:03 PM 69.8 °F 64.4 °F 83% 30.04 in 9.0 mi NW 9.2 mph - 0.00 in Rain Light Rain
1:56 PM 68.0 °F 64.9 °F 90% 30.04 in 6.0 mi NNW 11.5 mph - 0.01 in   Overcast
2:25 PM 69.8 °F 66.2 °F 88% 30.03 in 10.0 mi NNW 11.5 mph - N/A   Overcast
2:56 PM 69.1 °F 64.0 °F 84% 30.03 in 10.0 mi NNW 10.4 mph - N/A   Overcast
3:03 PM 69.8 °F 64.4 °F 83% 30.03 in 10.0 mi NNW 13.8 mph - N/A   Overcast
3:36 PM 66.2 °F 62.6 °F 88% 30.03 in 8.0 mi NW 16.1 mph - 0.00 in Rain Light Rain
3:56 PM 66.0 °F 64.0 °F 93% 30.02 in 6.0 mi NW 13.8 mph - 0.00 in   Overcast
4:02 PM 66.2 °F 62.6 °F 88% 30.03 in 10.0 mi NW 13.8 mph - N/A   Overcast
4:36 PM 64.4 °F 62.6 °F 94% 30.03 in 2.0 mi NW 15.0 mph - 0.00 in Rain Rain
4:56 PM 63.0 °F 61.0 °F 93% 30.03 in 4.0 mi NW 17.3 mph 21.9 mph 0.03 in Rain Light Rain
5:56 PM 61.0 °F 59.0 °F 93% 30.04 in 3.0 mi WNW 13.8 mph - 0.00 in Rain Light Rain
6:10 PM 60.8 °F 57.2 °F 88% 30.04 in 2.0 mi NW 19.6 mph 25.3 mph 0.00 in Rain Light Rain
6:46 PM 57.2 °F 55.4 °F 94% 30.06 in 2.0 mi NW 17.3 mph 26.5 mph 0.01 in Rain Light Rain
6:56 PM 57.0 °F 54.0 °F 89% 30.06 in 2.5 mi WNW 16.1 mph 27.6 mph 0.01 in Rain Light Rain
7:38 PM 55.4 °F 53.6 °F 94% 30.08 in 3.0 mi WNW 18.4 mph - 0.00 in   Overcast
7:56 PM 55.0 °F 52.0 °F 89% 30.08 in 5.0 mi NW 17.3 mph - 0.00 in Rain Light Rain
8:56 PM 53.1 °F 50.0 °F 89% 30.10 in 10.0 mi NW 16.1 mph 26.5 mph 0.00 in   Overcast
9:56 PM 51.1 °F 46.9 °F 86% 30.13 in 10.0 mi NW 15.0 mph 24.2 mph N/A   Overcast
10:56 PM 50.0 °F 45.0 °F 83% 30.13 in 10.0 mi NW 20.7 mph - N/A   Overcast
11:56 PM 46.9 °F 44.1 °F 90% 30.14 in 6.0 mi NW 13.8 mph 21.9 mph 0.00 in   Light Drizzle